Location: Alsip
(41.6689°N, 87.7387°W)
Time: 14:10:50
(UTC+00:00)

PSLV R/B - Pass Details

Date: 14 July 2020
Orbit: 597 x 702 km, 97.9° (Epoch: 04 August)

Event Time Altitude Azimuth Distance (km) Brightness Sun altitude
Rises 06:19:52 0° 11° (N) 2,878 8.3 -26.5°
Reaches altitude 10° 06:22:01 10° 11° (N) 1,980 7.2 -26.5°
Enters shadow 06:25:44 66° 355° (N) 685 3.9 -26.4°
